This is the latest recevied weather packets stored in our database for station/object LU3HGB-WX. If no packets are shown the sender has not sent any weather packets the latest 10 day(s).
| Time | Temp. | Humidity | Pressure | Rain* | Wind** | Luminosity | Snow |
|---|---|---|---|---|---|---|---|
| 1778095960 | 28.89° C | 34% | 1005 hPa | 0 mm | - | 350 W/m² | - |
| 1778095659 | 29.44° C | 32% | 1005 hPa | 0 mm | - | 362 W/m² | - |
| 1778095359 | 28.89° C | 37% | 1005 hPa | 0 mm | - | 377 W/m² | - |
| 1778095059 | 28.33° C | 35% | 1005 hPa | 0 mm | - | 395 W/m² | - |
| 1778094761 | 28.33° C | 36% | 1005 hPa | 0 mm | - | 409 W/m² | - |
| 1778094459 | 27.78° C | 39% | 1005 hPa | 0 mm | - | 426 W/m² | - |
| 1778094160 | 28.33° C | 37% | 1005 hPa | 0 mm | - | 444 W/m² | - |
| 1778093859 | 27.78° C | 41% | 1005 hPa | 0 mm | - | 457 W/m² | - |
| 1778093560 | 27.78° C | 41% | 1005 hPa | 0 mm | - | 470 W/m² | - |
| 1778093260 | 27.78° C | 40% | 1005 hPa | 0 mm | - | 485 W/m² | - |
| 1778092961 | 27.78° C | 39% | 1005 hPa | 0 mm | - | 500 W/m² | - |
| 1778092660 | 27.78° C | 40% | 1005 hPa | 0 mm | - | 512 W/m² | - |
| 1778092359 | 27.78° C | 42% | 1006 hPa | 0 mm | - | 528 W/m² | - |
| 1778092060 | 27.78° C | 41% | 1006 hPa | 0 mm | - | 539 W/m² | - |
| 1778091760 | 27.78° C | 41% | 1006 hPa | 0 mm | - | 548 W/m² | - |
| 1778091460 | 27.78° C | 42% | 1006 hPa | 0 mm | - | 561 W/m² | - |
| 1778091159 | 27.78° C | 42% | 1006 hPa | 0 mm | - | 573 W/m² | - |
| 1778090859 | 27.78° C | 43% | 1006 hPa | 0 mm | - | 584 W/m² | - |
| 1778090563 | 27.78° C | 41% | 1006 hPa | 0 mm | - | 597 W/m² | - |
| 1778090260 | 27.78° C | 42% | 1006 hPa | 0 mm | - | 604 W/m² | - |
| 1778089960 | 27.78° C | 47% | 1007 hPa | 0 mm | - | 614 W/m² | - |
| 1778089659 | 27.22° C | 44% | 1007 hPa | 0 mm | - | 624 W/m² | - |
| 1778089360 | 27.22° C | 42% | 1007 hPa | 0 mm | - | 634 W/m² | - |
| 1778089060 | 27.22° C | 44% | 1007 hPa | 0 mm | - | 642 W/m² | - |
| 1778088760 | 27.22° C | 43% | 1007 hPa | 0 mm | - | 653 W/m² | - |
* Rain latest hour (hover to see other rain measurements)
** Current wind speed in m/s (hover to see current wind gust speed)